This demonstration page uses our WeatherBlox Daily Observations layout. Learn more.

Left ArrowRight Arrow

31.31129, -92.44514

Hourly Observations for August 6, 2018

Temp ( °F °C ) Dew Point ( °F °C ) Humidity (%) Winds ( mph kmh ) Pressure ( in mb ) Visibility ( mi km ) Precip ( " mm )
12:53 am 00:53 Clear 72 22.2 70 21.1 94 94 Calm 30.14 1021 10 16 0.00 0.00
1:53 am 01:53 Clear 72 22.2 70 21.1 94 94 SE 3 6 30.12 1020 10 16 0.00 0.00
2:53 am 02:53 Clear 71 21.7 69 20.6 94 94 Calm 30.11 1020 10 16 0.00 0.00
3:53 am 03:53 Clear 72 22.2 69 20.6 91 91 Calm 30.11 1020 10 16 0.00 0.00
4:53 am 04:53 Clear 70 21.1 69 20.6 97 97 Calm 30.11 1020 10 16 0.00 0.00
5:53 am 05:53 Clear 71 21.7 69 20.6 94 94 Calm 30.11 1020 10 16 0.00 0.00
6:53 am 06:53 Sunny 72 22.2 70 21.1 94 94 ESE 5 7 30.12 1020 10 16 0.00 0.00
7:53 am 07:53 Sunny 76 24.4 72 22.2 88 88 SE 5 7 30.13 1020 10 16 0.00 0.00
8:53 am 08:53 Sunny 80 26.7 74 23.3 82 82 Calm 30.14 1021 10 16 0.00 0.00
9:53 am 09:53 Sunny 84 28.9 74 23.3 72 72 SSE 6 9 30.14 1021 10 16 0.00 0.00
10:53 am 10:53 Sunny 87 30.6 74 23.3 65 65 VRB 5 7 30.15 1021 10 16 0.00 0.00
11:53 am 11:53 Sunny 90 32.2 73 22.8 58 58 SSE 6 9 30.15 1021 10 16 0.00 0.00
12:53 pm 12:53 Mostly Sunny 91 32.8 72 22.2 54 54 SSW 5 7 30.13 1020 10 16 0.00 0.00
1:53 pm 13:53 Sunny 93 33.9 71 21.7 49 49 VRB 3 6 30.09 1019 10 16 0.00 0.00
2:41 pm 14:41 Partly Cloudy with Nearby Thunderstorms 92 33.3 71 21.7 51 51 SSE 5 7 30.06 1018 10 16 0.00 0.00
2:53 pm 14:53 Mostly Sunny 94 34.4 70 21.1 46 46 VRB 3 6 30.07 1018 10 16 0.00 0.00
3:08 pm 15:08 Partly Cloudy with Nearby Thunderstorms 95 35 71 21.7 46 46 SE 8 13 30.06 1018 10 16 0.00 0.00
3:35 pm 15:35 Mostly Sunny 94 34.4 69 20.6 44 44 SE 8 13 30.06 1018 10 16 0.00 0.00
3:53 pm 15:53 Mostly Cloudy with Nearby Thunderstorms 87 30.6 68 20 53 53 SE 8 13 30.06 1018 10 16 0.00 0.00
4:53 pm 16:53 Partly Cloudy with Nearby Thunderstorms 84 28.9 70 21.1 63 63 SE 14 22 30.06 1018 10 16 0.00 0.00
5:30 pm 17:30 Cloudy with Thunderstorms 84 28.9 71 21.7 65 65 SE 16 26 30.06 1018 10 16 0.00 0.00
5:45 pm 17:45 Mostly Cloudy 81 27.2 72 22.2 74 74 S 9 15 30.09 1019 10 16 0.00 0.00
5:53 pm 17:53 Partly Cloudy 81 27.2 72 22.2 74 74 SSW 10 17 30.08 1019 10 16 0.00 0.00
6:53 pm 18:53 Partly Cloudy 77 25 72 22.2 85 85 SW 8 13 30.11 1020 10 16 0.00 0.00
7:53 pm 19:53 Partly Cloudy with Light Rain 75 23.9 72 22.2 90 90 NNW 6 9 30.09 1019 10 16 0.00 0.03
8:53 pm 20:53 Partly Cloudy with Light Rain 75 23.9 72 22.2 90 90 NNW 5 7 30.08 1019 10 16 0.00 0.03
9:53 pm 21:53 Clear 74 23.3 72 22.2 94 94 Calm 30.09 1019 10 16 0.00 0.03
10:53 pm 22:53 Clear 74 23.3 72 22.2 94 94 ESE 3 6 30.09 1019 10 16 0.00 0.00
11:53 pm 23:53 Clear 74 23.3 72 22.2 94 94 Calm 30.08 1019 10 16 0.00 0.00

Powered by AerisWeather